• En España
  • Lista de países
  • Para 7 días
  • Temperatura del agua
  • Mapa Satelital
  • El tiempo en el mapa
  • Informadores
  • user-avatar
    Iniciar sesión

    Tiempo cada hora Graz

    Hoy, 22 Julio, Domingo

    Tiempo Temperatura Precipitaciones Viento Presión Humedad
    00:00 +19°C° 0,3 mm 1 mps 721 mmHg 88%
    01:00 +19°C° 0,3 mm 1 mps 721 mmHg 89%
    02:00 +19°C° 0,2 mm 1 mps 720 mmHg 90%
    03:00 +18°C° 0,2 mm 1 mps 720 mmHg 91%
    04:00 +18°C° 0,2 mm 1 mps 720 mmHg 92%
    05:00 +19°C° 0,1 mm 1 mps 721 mmHg 89%
    06:00 +20°C° 0,1 mm 1 mps 721 mmHg 86%
    07:00 +21°C° 0,1 mm 1 mps 721 mmHg 83%
    08:00 +23°C° 0,2 mm 1 mps 721 mmHg 77%
    09:00 +24°C° 0,2 mm 1 mps 721 mmHg 72%
    10:00 +25°C° 0,2 mm 1 mps 721 mmHg 66%
    11:00 +26°C° 0,9 mm 1 mps 721 mmHg 67%
    12:00 +26°C° 0,9 mm 1 mps 721 mmHg 67%
    13:00 +27°C° 0,9 mm 1 mps 721 mmHg 68%
    14:00 +26°C° 1,5 mm 1 mps 721 mmHg 70%
    15:00 +26°C° 1,5 mm 1 mps 721 mmHg 73%
    16:00 +25°C° 1,5 mm 1 mps 721 mmHg 75%
    17:00 +24°C° 0,9 mm 1 mps 721 mmHg 79%
    18:00 +23°C° 0,9 mm 1 mps 721 mmHg 82%
    19:00 +22°C° 0,9 mm 1 mps 720 mmHg 86%
    20:00 +21°C° 0,2 mm 1 mps 721 mmHg 88%
    21:00 +20°C° 0,2 mm 1 mps 721 mmHg 89%
    22:00 +18°C° 0,2 mm 2 mps 721 mmHg 91%
    23:00 +18°C° 0 mm 2 mps 721 mmHg 92%

    Mañana, 23 Julio, Lunes

    Tiempo Temperatura Precipitaciones Viento Presión Humedad
    00:00 +18°C° 0 mm 2 mps 721 mmHg 92%
    01:00 +17°C° 0 mm 2 mps 721 mmHg 93%
    02:00 +17°C° 0,6 mm 2 mps 721 mmHg 93%
    03:00 +18°C° 0,6 mm 2 mps 721 mmHg 94%
    04:00 +18°C° 0,6 mm 2 mps 721 mmHg 94%
    05:00 +18°C° 0,8 mm 2 mps 721 mmHg 94%
    06:00 +18°C° 0,8 mm 2 mps 721 mmHg 94%
    07:00 +18°C° 0,8 mm 2 mps 722 mmHg 94%
    08:00 +19°C° 0,1 mm 3 mps 722 mmHg 85%
    09:00 +21°C° 0,1 mm 3 mps 722 mmHg 76%
    10:00 +22°C° 0,1 mm 3 mps 723 mmHg 67%
    11:00 +24°C° 0 mm 3 mps 722 mmHg 61%
    12:00 +25°C° 0 mm 3 mps 722 mmHg 55%
    13:00 +26°C° 0 mm 3 mps 722 mmHg 50%
    14:00 +26°C° 0 mm 4 mps 722 mmHg 48%
    15:00 +27°C° 0 mm 4 mps 722 mmHg 46%
    16:00 +28°C° 0 mm 4 mps 722 mmHg 45%
    17:00 +26°C° 0 mm 3 mps 722 mmHg 53%
    18:00 +25°C° 0 mm 3 mps 722 mmHg 62%
    19:00 +23°C° 0 mm 2 mps 722 mmHg 70%
    20:00 +21°C° 0 mm 2 mps 723 mmHg 75%
    21:00 +20°C° 0 mm 2 mps 723 mmHg 79%
    22:00 +18°C° 0 mm 2 mps 724 mmHg 84%
    23:00 +18°C° 0 mm 2 mps 723 mmHg 85%

    Pasado mañana, 24 Julio, Martes

    Tiempo Temperatura Precipitaciones Viento Presión Humedad
    00:00 +17°C° 0 mm 2 mps 723 mmHg 86%
    01:00 +17°C° 0 mm 2 mps 723 mmHg 87%
    02:00 +17°C° 0 mm 2 mps 723 mmHg 88%
    03:00 +16°C° 0 mm 2 mps 723 mmHg 89%
    04:00 +16°C° 0 mm 2 mps 723 mmHg 89%
    05:00 +18°C° 0 mm 2 mps 723 mmHg 85%
    06:00 +19°C° 0 mm 2 mps 724 mmHg 80%
    07:00 +21°C° 0 mm 2 mps 724 mmHg 75%
    08:00 +24°C° 0 mm 2 mps 724 mmHg 66%
    09:00 +26°C° 0 mm 2 mps 724 mmHg 58%
    10:00 +28°C° 0 mm 2 mps 724 mmHg 49%
    11:00 +28°C° 0 mm 2 mps 724 mmHg 48%
    12:00 +28°C° 0 mm 2 mps 723 mmHg 47%
    13:00 +29°C° 0 mm 2 mps 723 mmHg 46%
    14:00 +29°C° 0 mm 1 mps 723 mmHg 46%
    15:00 +29°C° 0 mm 1 mps 723 mmHg 47%
    16:00 +29°C° 0 mm 1 mps 722 mmHg 47%
    17:00 +27°C° 0 mm 1 mps 722 mmHg 55%
    18:00 +26°C° 0 mm 1 mps 722 mmHg 63%
    19:00 +24°C° 0 mm 1 mps 722 mmHg 70%
    20:00 +23°C° 0 mm 1 mps 722 mmHg 74%
    21:00 +22°C° 0 mm 1 mps 723 mmHg 78%
    22:00 +20°C° 0 mm 1 mps 723 mmHg 81%
    23:00 +20°C° 0 mm 1 mps 723 mmHg 83%

    25 Julio, Miércoles

    Tiempo Temperatura Precipitaciones Viento Presión Humedad
    00:00 +19°C° 0 mm 1 mps 723 mmHg 85%
    01:00 +19°C° 0 mm 1 mps 723 mmHg 87%
    02:00 +18°C° 0 mm 1 mps 723 mmHg 87%
    03:00 +18°C° 0 mm 1 mps 723 mmHg 88%
    04:00 +18°C° 0 mm 1 mps 723 mmHg 89%
    05:00 +19°C° 0 mm 1 mps 723 mmHg 83%
    06:00 +21°C° 0 mm 1 mps 723 mmHg 78%
    07:00 +23°C° 0 mm 1 mps 724 mmHg 73%
    08:00 +25°C° 0 mm 1 mps 724 mmHg 64%
    09:00 +27°C° 0 mm 1 mps 724 mmHg 56%
    10:00 +29°C° 0 mm 1 mps 724 mmHg 48%
    11:00 +29°C° 0 mm 1 mps 724 mmHg 46%
    12:00 +30°C° 0 mm 1 mps 723 mmHg 44%
    13:00 +30°C° 0 mm 1 mps 723 mmHg 42%
    14:00 +30°C° 0 mm 1 mps 723 mmHg 43%
    15:00 +30°C° 0 mm 1 mps 723 mmHg 44%
    16:00 +30°C° 0 mm 1 mps 723 mmHg 45%
    17:00 +28°C° 0,1 mm 1 mps 722 mmHg 53%
    18:00 +26°C° 0,1 mm 1 mps 722 mmHg 62%
    19:00 +25°C° 0,1 mm 1 mps 722 mmHg 71%
    20:00 +23°C° 0,2 mm 1 mps 723 mmHg 75%
    21:00 +22°C° 0,2 mm 1 mps 723 mmHg 79%
    22:00 +21°C° 0,2 mm 1 mps 723 mmHg 83%
    23:00 +20°C° 0,2 mm 1 mps 723 mmHg 85%

    26 Julio, Jueves

    Tiempo Temperatura Precipitaciones Viento Presión Humedad
    00:00 +20°C° 0,2 mm 1 mps 723 mmHg 87%
    01:00 +19°C° 0,2 mm 1 mps 723 mmHg 89%
    02:00 +19°C° 0,1 mm 1 mps 723 mmHg 90%
    03:00 +19°C° 0,1 mm 1 mps 723 mmHg 90%
    04:00 +18°C° 0,1 mm 1 mps 723 mmHg 91%
    05:00 +20°C° 0 mm 1 mps 723 mmHg 87%
    06:00 +21°C° 0 mm 1 mps 724 mmHg 83%
    07:00 +22°C° 0 mm 1 mps 724 mmHg 79%
    08:00 +24°C° 0 mm 1 mps 724 mmHg 69%
    09:00 +26°C° 0 mm 2 mps 724 mmHg 59%
    10:00 +28°C° 0 mm 2 mps 724 mmHg 49%
    11:00 +29°C° 0 mm 2 mps 724 mmHg 46%
    12:00 +30°C° 0 mm 2 mps 724 mmHg 43%
    13:00 +30°C° 0 mm 2 mps 724 mmHg 41%
    14:00 +30°C° 0 mm 2 mps 724 mmHg 42%
    15:00 +30°C° 0 mm 2 mps 724 mmHg 44%
    16:00 +30°C° 0 mm 2 mps 723 mmHg 45%
    17:00 +28°C° 0,1 mm 2 mps 723 mmHg 54%
    18:00 +26°C° 0,1 mm 1 mps 723 mmHg 62%
    19:00 +25°C° 0,1 mm 1 mps 723 mmHg 70%
    20:00 +23°C° 0,2 mm 1 mps 724 mmHg 75%
    21:00 +22°C° 0,2 mm 1 mps 724 mmHg 79%
    22:00 +20°C° 0,2 mm 1 mps 724 mmHg 84%
    23:00 +20°C° 0 mm 1 mps 724 mmHg 85%

    27 Julio, Viernes

    Tiempo Temperatura Precipitaciones Viento Presión Humedad
    00:00 +20°C° 0 mm 1 mps 724 mmHg 86%
    01:00 +19°C° 0 mm 1 mps 724 mmHg 87%
    02:00 +19°C° 0 mm 1 mps 724 mmHg 88%
    03:00 +19°C° 0 mm 1 mps 724 mmHg 88%
    04:00 +19°C° 0 mm 1 mps 724 mmHg 88%
    05:00 +20°C° 0 mm 1 mps 724 mmHg 85%
    06:00 +21°C° 0 mm 1 mps 724 mmHg 81%
    07:00 +23°C° 0 mm 1 mps 724 mmHg 77%
    08:00 +25°C° 0,2 mm 1 mps 724 mmHg 69%
    09:00 +27°C° 0,2 mm 1 mps 724 mmHg 62%
    10:00 +29°C° 0,2 mm 1 mps 724 mmHg 54%
    11:00 +30°C° 0,7 mm 1 mps 724 mmHg 53%
    12:00 +30°C° 0,7 mm 1 mps 724 mmHg 52%
    13:00 +31°C° 0,7 mm 1 mps 723 mmHg 51%
    14:00 +31°C° 0,8 mm 1 mps 723 mmHg 52%
    15:00 +30°C° 0,8 mm 1 mps 723 mmHg 53%
    16:00 +30°C° 0,8 mm 1 mps 723 mmHg 54%
    17:00 +28°C° 0,5 mm 1 mps 723 mmHg 61%
    18:00 +27°C° 0,5 mm 1 mps 723 mmHg 68%
    19:00 +23°C° 0,5 mm 0 mps 723 mmHg 75%
    20:00 +24°C° 0,2 mm 1 mps 723 mmHg 78%
    21:00 +23°C° 0,2 mm 1 mps 723 mmHg 81%
    22:00 +22°C° 0,2 mm 1 mps 723 mmHg 83%
    23:00 +21°C° 0 mm 1 mps 723 mmHg 85%
    Mostrar más